TimeCST,TemperatureF,Dew PointF,Humidity,Sea Level PressureIn,VisibilityMPH,Wind Direction,Wind SpeedMPH,Gust SpeedMPH,PrecipitationIn,Events,Conditions,WindDirDegrees,DateUTC
12:15 AM,24.8,17.6,74,30.37,10.0,ENE,3.5,-,N/A,,Clear,70,2013-01-23 06:15:00
12:35 AM,24.8,17.6,74,30.37,10.0,ENE,4.6,-,N/A,,Clear,70,2013-01-23 06:35:00
12:55 AM,24.8,17.6,74,30.37,10.0,East,3.5,-,N/A,,Clear,80,2013-01-23 06:55:00
1:15 AM,24.8,17.6,74,30.37,10.0,East,3.5,-,N/A,,Clear,90,2013-01-23 07:15:00
1:35 AM,24.8,17.6,74,30.37,10.0,ENE,4.6,-,N/A,,Clear,70,2013-01-23 07:35:00
1:55 AM,24.8,17.6,74,30.36,10.0,East,4.6,-,N/A,,Clear,90,2013-01-23 07:55:00
2:15 AM,24.8,17.6,74,30.36,10.0,East,4.6,-,N/A,,Clear,90,2013-01-23 08:15:00
2:35 AM,24.8,17.6,74,30.37,10.0,ENE,4.6,-,N/A,,Clear,60,2013-01-23 08:35:00
2:55 AM,24.8,17.6,74,30.35,10.0,East,4.6,-,N/A,,Clear,90,2013-01-23 08:55:00
3:15 AM,24.8,17.6,74,30.35,10.0,ESE,3.5,-,N/A,,Clear,110,2013-01-23 09:15:00
3:35 AM,24.8,17.6,74,30.34,10.0,ENE,3.5,-,N/A,,Clear,60,2013-01-23 09:35:00
3:55 AM,24.8,17.6,74,30.34,10.0,NE,3.5,-,N/A,,Clear,50,2013-01-23 09:55:00
4:15 AM,23.0,17.6,80,30.34,10.0,ENE,3.5,-,N/A,,Clear,60,2013-01-23 10:15:00
4:35 AM,23.0,17.6,80,30.34,10.0,ENE,3.5,-,N/A,,Clear,60,2013-01-23 10:35:00
4:55 AM,24.8,17.6,74,30.34,10.0,Calm,Calm,-,N/A,,Clear,0,2013-01-23 10:55:00
5:15 AM,24.8,19.4,80,30.34,10.0,NE,4.6,-,N/A,,Clear,40,2013-01-23 11:15:00
5:35 AM,23.0,17.6,80,30.34,10.0,NE,4.6,-,N/A,,Clear,50,2013-01-23 11:35:00
5:55 AM,24.8,17.6,74,30.35,10.0,NE,3.5,-,N/A,,Clear,50,2013-01-23 11:55:00
6:15 AM,23.0,17.6,80,30.35,10.0,Calm,Calm,-,N/A,,Clear,0,2013-01-23 12:15:00
6:35 AM,24.8,17.6,74,30.34,10.0,Calm,Calm,-,N/A,,Clear,0,2013-01-23 12:35:00
6:55 AM,23.0,17.6,80,30.34,10.0,Calm,Calm,-,N/A,,Clear,0,2013-01-23 12:55:00
7:15 AM,23.0,19.4,86,30.34,10.0,Calm,Calm,-,N/A,,Clear,0,2013-01-23 13:15:00
7:35 AM,24.8,19.4,80,30.34,10.0,Calm,Calm,-,N/A,,Clear,0,2013-01-23 13:35:00
7:55 AM,24.8,19.4,80,30.33,10.0,Calm,Calm,-,N/A,,Clear,0,2013-01-23 13:55:00
8:15 AM,24.8,19.4,80,30.34,10.0,North,3.5,-,N/A,,Clear,10,2013-01-23 14:15:00
8:35 AM,26.6,19.4,74,30.33,10.0,Calm,Calm,-,N/A,,Clear,0,2013-01-23 14:35:00
8:55 AM,26.6,19.4,74,30.33,9.0,Calm,Calm,-,N/A,,Clear,0,2013-01-23 14:55:00
9:15 AM,28.4,21.2,74,30.33,10.0,Calm,Calm,-,N/A,,Clear,0,2013-01-23 15:15:00
9:35 AM,30.2,19.4,64,30.33,10.0,Calm,Calm,-,N/A,,Clear,0,2013-01-23 15:35:00
9:55 AM,32.0,21.2,64,30.33,10.0,Calm,Calm,-,N/A,,Clear,0,2013-01-23 15:55:00
10:15 AM,32.0,23.0,69,30.34,10.0,Calm,Calm,-,N/A,,Clear,0,2013-01-23 16:15:00
10:55 AM,35.6,23.0,60,30.32,10.0,WSW,3.5,-,N/A,,Clear,240,2013-01-23 16:55:00
11:15 AM,35.6,24.8,65,30.31,10.0,SW,5.8,-,N/A,,Clear,230,2013-01-23 17:15:00
11:35 AM,37.4,24.8,60,30.29,10.0,SW,4.6,-,N/A,,Clear,230,2013-01-23 17:35:00
11:55 AM,39.2,24.8,56,30.27,10.0,SW,6.9,-,N/A,,Clear,230,2013-01-23 17:55:00
12:15 PM,39.2,26.6,61,30.26,10.0,WSW,6.9,-,N/A,,Clear,240,2013-01-23 18:15:00
12:35 PM,41.0,28.4,61,30.24,10.0,SSW,5.8,-,N/A,,Clear,210,2013-01-23 18:35:00
12:55 PM,41.0,26.6,57,30.23,10.0,South,5.8,-,N/A,,Clear,190,2013-01-23 18:55:00
1:15 PM,44.6,28.4,53,30.22,10.0,SSW,9.2,-,N/A,,Clear,210,2013-01-23 19:15:00
1:35 PM,42.8,28.4,57,30.21,10.0,WSW,8.1,-,N/A,,Clear,240,2013-01-23 19:35:00
1:55 PM,44.6,32.0,61,30.20,10.0,SW,9.2,-,N/A,,Clear,220,2013-01-23 19:55:00
2:15 PM,44.6,32.0,61,30.19,10.0,SW,6.9,-,N/A,,Clear,220,2013-01-23 20:15:00
2:35 PM,46.4,32.0,57,30.19,10.0,SW,6.9,-,N/A,,Clear,220,2013-01-23 20:35:00
2:55 PM,46.4,32.0,57,30.19,10.0,SSW,6.9,-,N/A,,Clear,210,2013-01-23 20:55:00
3:15 PM,46.4,32.0,57,30.18,5.0,SW,8.1,-,N/A,,Haze,220,2013-01-23 21:15:00
3:35 PM,46.4,32.0,57,30.18,7.0,SSW,9.2,-,N/A,,Clear,210,2013-01-23 21:35:00
3:55 PM,46.4,35.6,66,30.18,4.0,SSW,8.1,-,N/A,,Haze,210,2013-01-23 21:55:00
4:15 PM,46.4,35.6,66,30.17,5.0,SSW,11.5,-,N/A,,Haze,210,2013-01-23 22:15:00
4:35 PM,44.6,35.6,71,30.18,7.0,SW,6.9,-,N/A,,Clear,220,2013-01-23 22:35:00
4:55 PM,44.6,35.6,71,30.16,10.0,SSW,8.1,-,N/A,,Clear,210,2013-01-23 22:55:00
5:15 PM,41.0,35.6,81,30.16,10.0,SSW,6.9,-,N/A,,Clear,210,2013-01-23 23:15:00
5:35 PM,41.0,35.6,81,30.17,10.0,SSW,4.6,-,N/A,,Clear,210,2013-01-23 23:35:00
5:55 PM,39.2,35.6,87,30.17,10.0,SW,4.6,-,N/A,,Clear,220,2013-01-23 23:55:00
6:15 PM,39.2,35.6,87,30.17,10.0,SSW,3.5,-,N/A,,Clear,210,2013-01-24 00:15:00
6:35 PM,39.2,33.8,81,30.17,10.0,SSW,4.6,-,N/A,,Clear,210,2013-01-24 00:35:00
6:55 PM,39.2,33.8,81,30.18,10.0,Calm,Calm,-,N/A,,Clear,0,2013-01-24 00:55:00
7:15 PM,37.4,33.8,87,30.18,10.0,Calm,Calm,-,N/A,,Clear,0,2013-01-24 01:15:00
7:35 PM,37.4,32.0,81,30.19,10.0,Calm,Calm,-,N/A,,Clear,0,2013-01-24 01:35:00
7:55 PM,35.6,33.8,93,30.19,10.0,SW,3.5,-,N/A,,Clear,230,2013-01-24 01:55:00
8:15 PM,37.4,32.0,81,30.20,10.0,Calm,Calm,-,N/A,,Clear,0,2013-01-24 02:15:00
8:35 PM,35.6,32.0,87,30.21,10.0,Calm,Calm,-,N/A,,Clear,0,2013-01-24 02:35:00
8:55 PM,35.6,32.0,87,30.22,10.0,Calm,Calm,-,N/A,,Clear,0,2013-01-24 02:55:00
9:15 PM,35.6,33.8,93,30.22,10.0,North,4.6,-,N/A,,Clear,10,2013-01-24 03:15:00
9:35 PM,35.6,32.0,87,30.22,10.0,North,3.5,-,N/A,,Clear,10,2013-01-24 03:35:00
9:55 PM,32.0,32.0,100,30.23,9.0,North,5.8,-,N/A,,Clear,350,2013-01-24 03:55:00
10:15 PM,32.0,32.0,100,30.24,10.0,North,6.9,-,N/A,,Clear,350,2013-01-24 04:15:00
10:35 PM,33.8,32.0,93,30.26,10.0,North,5.8,-,N/A,,Clear,10,2013-01-24 04:35:00
10:55 PM,32.0,32.0,100,30.26,10.0,North,6.9,-,N/A,,Clear,10,2013-01-24 04:55:00
11:15 PM,33.8,32.0,93,30.26,10.0,North,6.9,-,N/A,,Clear,10,2013-01-24 05:15:00
11:35 PM,35.6,32.0,87,30.27,10.0,North,10.4,-,N/A,,Clear,10,2013-01-24 05:35:00
11:55 PM,35.6,32.0,87,30.27,10.0,North,9.2,-,N/A,,Clear,10,2013-01-24 05:55:00